Weather History for Lake Hood, AK

Change the Weather History Date:

Saturday, September 1, 2012

  Actual Average Record
Temperature  
Mean Temperature 52 °F -  
Max Temperature 55 °F 59 °F 64 °F (2006)
Min Temperature 48 °F 44 °F 44 °F (2001)
Degree Days  
Heating Degree Days 14    
Growing Degree Days 2 (Base 50)    
Moisture  
Dew Point 48 °F    
Average Humidity 86    
Maximum Humidity 90    
Minimum Humidity 77    
Precipitation  
Precipitation 0.08 in - - ()
Sea Level Pressure  
Sea Level Pressure 29.59 in    
Wind  
Wind Speed 5 mph (NNE)    
Max Wind Speed 8 mph    
Max Gust Speed -    
Visibility 8 miles    
Events Rain    
Averages and records for this station are not official NWS values.
T = Trace of Precipitation, MM = Missing Value Source: NWS Daily Summary

Daily Weather History Graph

Daily Weather History Graph

Search for Another Location

Airport:

Trip Planner

Search our weather history database for the weather conditions in past years. The results will help you decide how hot, cold, wet, or windy it might be!

Date:

Astronomy

Sep. 01, 2012 Rise Set
Actual Time 6:53 AM AKDT 9:04 PM AKDT
Civil Twilight 6:06 AM AKDT 9:50 PM AKDT
Nautical Twilight 5:04 AM AKDT 10:51 PM AKDT
Astronomical Twilight 3:41 AM AKDT 12:12 AM AKDT
Moon 8:37 PM AKDT (9/1) 8:51 AM AKDT (9/1)
Length of Visible Light 15h 44m
Length of Day
14h 10m
Full, 98% of the Moon is Illuminated
Sep 1
Full
Sep 8
Last Quarter
Sep 15
New
Sep 22
First Quarter
Sep 29
Full

Hourly Weather History & Observations

Time (AKDT) Temp. Dew Point Humidity Pressure Visibility Wind Dir Wind Speed Gust Speed Precip Events Conditions
12:36 AM 50.0 °F 46.4 °F 87% 29.61 in 9.0 mi North 5.8 mph - 0.00 in Rain Light Rain
12:50 AM 50.0 °F 46.4 °F 87% 29.60 in 8.0 mi North 8.1 mph - 0.00 in Rain Light Rain
12:53 AM 50.0 °F 46.9 °F 89% 29.60 in 8.0 mi North 6.9 mph - 0.00 in Rain Light Rain
1:17 AM 50.0 °F 46.4 °F 87% 29.60 in 10.0 mi North 4.6 mph - 0.00 in Rain Light Rain
1:53 AM 50.0 °F 46.9 °F 89% 29.59 in 10.0 mi North 6.9 mph - 0.00 in   Overcast
2:43 AM 50.0 °F 46.4 °F 87% 29.58 in 10.0 mi North 6.9 mph - N/A   Overcast
2:53 AM 48.9 °F 46.0 °F 90% 29.58 in 10.0 mi NNE 4.6 mph - N/A   Overcast
2:59 AM 50.0 °F 46.4 °F 87% 29.58 in 10.0 mi NNE 4.6 mph - N/A   Overcast
3:29 AM 50.0 °F 46.4 °F 87% 29.57 in 10.0 mi NNE 5.8 mph - N/A   Overcast
3:53 AM 50.0 °F 46.0 °F 86% 29.57 in 10.0 mi North 5.8 mph - 0.00 in Rain Light Rain
4:53 AM 48.9 °F 46.0 °F 90% 29.56 in 10.0 mi North 6.9 mph - 0.00 in Rain Light Rain
5:53 AM 50.0 °F 46.9 °F 89% 29.55 in 8.0 mi North 3.5 mph - 0.01 in Rain Light Rain
6:53 AM 50.0 °F 46.0 °F 86% 29.54 in 10.0 mi North 5.8 mph - 0.00 in Rain Light Rain
7:53 AM 50.0 °F 46.9 °F 89% 29.54 in 10.0 mi North 5.8 mph - 0.00 in Rain Light Rain
8:53 AM 50.0 °F 46.9 °F 89% 29.54 in 10.0 mi North 4.6 mph - 0.00 in Rain Light Rain
9:53 AM 50.0 °F 46.9 °F 89% 29.55 in 6.0 mi North 4.6 mph - 0.00 in Rain Light Rain
10:53 AM 51.1 °F 48.0 °F 89% 29.55 in 8.0 mi NNE 3.5 mph - 0.00 in Rain Light Rain
11:41 AM 51.8 °F 48.2 °F 88% 29.54 in 10.0 mi NNE 4.6 mph - 0.00 in Rain Light Rain
11:53 AM 52.0 °F 48.0 °F 86% 29.55 in 10.0 mi Variable 3.5 mph - 0.00 in Rain Light Rain
12:53 PM 53.1 °F 48.9 °F 86% 29.55 in 10.0 mi NNE 4.6 mph - 0.00 in   Overcast
1:09 PM 53.6 °F 48.2 °F 82% 29.54 in 10.0 mi NNE 5.8 mph - 0.00 in   Overcast
1:51 PM 53.6 °F 48.2 °F 82% 29.54 in 10.0 mi NNE 3.5 mph - 0.00 in Rain Light Rain
1:53 PM 53.1 °F 48.9 °F 86% 29.55 in 10.0 mi NE 3.5 mph - 0.00 in Rain Light Rain
2:15 PM 53.6 °F 48.2 °F 82% 29.55 in 7.0 mi ENE 3.5 mph - 0.00 in Rain Light Rain
2:53 PM 54.0 °F 48.9 °F 83% 29.55 in 10.0 mi ENE 4.6 mph - 0.00 in Rain Light Rain
3:03 PM 53.6 °F 48.2 °F 82% 29.55 in 10.0 mi Calm Calm - 0.00 in Rain Light Rain
3:36 PM 55.4 °F 48.2 °F 77% 29.55 in 10.0 mi Calm Calm - 0.00 in   Overcast
3:53 PM 55.0 °F 48.9 °F 80% 29.55 in 10.0 mi NE 3.5 mph - 0.00 in   Overcast
4:53 PM 55.0 °F 48.9 °F 80% 29.56 in 10.0 mi Calm Calm - 0.00 in Rain Light Rain
5:12 PM 55.4 °F 48.2 °F 77% 29.56 in 10.0 mi Calm Calm - 0.00 in Rain Light Rain
5:42 PM 53.6 °F 48.2 °F 82% 29.57 in 10.0 mi South 5.8 mph - 0.00 in Rain Light Rain
5:53 PM 53.1 °F 46.9 °F 80% 29.58 in 10.0 mi South 4.6 mph - 0.00 in Rain Light Rain
6:53 PM 53.1 °F 46.9 °F 80% 29.60 in 10.0 mi South 6.9 mph - 0.00 in Rain Light Rain
7:53 PM 52.0 °F 46.9 °F 83% 29.62 in 10.0 mi Variable 5.8 mph - 0.00 in Rain Light Rain
8:36 PM 51.8 °F 46.4 °F 82% 29.63 in 1.8 mi South 5.8 mph - 0.01 in Rain Rain
8:49 PM 51.8 °F 48.2 °F 88% 29.63 in 1.2 mi SSW 6.9 mph - 0.03 in Rain Rain
8:53 PM 52.0 °F 48.9 °F 89% 29.64 in 1.2 mi Variable 4.6 mph - 0.04 in Rain Rain
9:00 PM 51.8 °F 48.2 °F 88% 29.64 in 2.0 mi SSW 3.5 mph - 0.01 in Rain Rain
9:03 PM 51.8 °F 48.2 °F 88% 29.64 in 3.0 mi Variable 5.8 mph - 0.01 in Rain Rain
9:20 PM 51.8 °F 48.2 °F 88% 29.64 in 9.0 mi South 5.8 mph - 0.01 in Rain Light Rain
9:53 PM 51.1 °F 48.0 °F 89% 29.66 in 3.0 mi Variable 5.8 mph - 0.01 in Rain Light Rain
10:00 PM 51.8 °F 48.2 °F 88% 29.66 in 2.5 mi South 8.1 mph - 0.00 in Rain Light Rain
10:18 PM 51.8 °F 48.2 °F 88% 29.66 in 3.0 mi South 8.1 mph - 0.01 in Rain Light Rain
10:31 PM 51.8 °F 48.2 °F 88% 29.67 in 2.5 mi Variable 5.8 mph - 0.02 in Rain Light Rain
10:40 PM 51.8 °F 48.2 °F 88% 29.67 in 4.0 mi South 5.8 mph - 0.02 in Rain Light Rain
10:53 PM 51.1 °F 46.9 °F 86% 29.68 in 9.0 mi SSE 5.8 mph - 0.02 in   Overcast